Location: Memphis
(29.8667°N, 31.2500°E)
Time: 09:07:18
(UTC+00:00)

Cosmos 864 Rocket - Pass Details

Date: 03 March 2021
Orbit: 954 x 991 km, 82.9° (Epoch: 15 April)

Event Time Altitude Azimuth Distance (km) Brightness Sun altitude
Rises 17:15:05 0° 171° (S) 3,615 7.4 -18.0°
Reaches altitude 10° 17:17:37 10° 167° (SSE) 2,674 6.6 -18.6°
Maximum altitude 17:23:32 54° 92° (E) 1,153 4.5 -19.9°
Drops below altitude 10° 17:29:32 10° 16° (NNE) 2,705 6.7 -21.2°
Sets 17:32:06 0° 12° (NNE) 3,660 7.4 -21.7°
